TimeCST,TemperatureF,Dew PointF,Humidity,Sea Level PressureIn,VisibilityMPH,Wind Direction,Wind SpeedMPH,Gust SpeedMPH,PrecipitationIn,Events,Conditions,WindDirDegrees,DateUTC
12:15 AM,44.6,37.4,76,30.15,10.0,Calm,Calm,-,N/A,,Clear,0,2012-11-20 06:15:00
12:35 AM,44.6,37.4,76,30.15,10.0,Calm,Calm,-,N/A,,Scattered Clouds,0,2012-11-20 06:35:00
12:55 AM,44.6,37.4,76,30.14,10.0,SE,3.5,-,N/A,,Mostly Cloudy,130,2012-11-20 06:55:00
1:15 AM,44.6,39.2,81,30.14,10.0,ESE,4.6,-,N/A,,Overcast,110,2012-11-20 07:15:00
1:35 AM,44.6,41.0,87,30.14,10.0,ESE,4.6,-,N/A,,Overcast,110,2012-11-20 07:35:00
1:55 AM,46.4,41.0,81,30.14,10.0,ESE,5.8,-,N/A,,Overcast,120,2012-11-20 07:55:00
2:15 AM,46.4,42.8,87,30.14,10.0,SE,3.5,-,N/A,,Overcast,140,2012-11-20 08:15:00
2:35 AM,48.2,42.8,82,30.14,10.0,Calm,Calm,-,N/A,,Overcast,0,2012-11-20 08:35:00
6:15 AM,51.8,41.0,67,30.11,10.0,Calm,Calm,-,N/A,,Overcast,0,2012-11-20 12:15:00
6:35 AM,48.2,41.0,76,30.11,10.0,Calm,Calm,-,N/A,,Overcast,0,2012-11-20 12:35:00
6:55 AM,50.0,41.0,71,30.11,10.0,Calm,Calm,-,N/A,,Overcast,0,2012-11-20 12:55:00
7:15 AM,50.0,41.0,71,30.11,10.0,Calm,Calm,-,N/A,,Scattered Clouds,0,2012-11-20 13:15:00
7:35 AM,50.0,41.0,71,30.11,10.0,Calm,Calm,-,N/A,,Clear,0,2012-11-20 13:35:00
7:55 AM,51.8,41.0,67,30.12,10.0,Calm,Calm,-,N/A,,Clear,0,2012-11-20 13:55:00
8:15 AM,53.6,41.0,62,30.12,10.0,Calm,Calm,-,N/A,,Clear,0,2012-11-20 14:15:00
8:35 AM,55.4,41.0,58,30.12,10.0,Calm,Calm,-,N/A,,Clear,0,2012-11-20 14:35:00
8:55 AM,57.2,41.0,55,30.12,10.0,SW,6.9,-,N/A,,Clear,220,2012-11-20 14:55:00
9:15 AM,59.0,42.8,55,30.12,10.0,WSW,5.8,-,N/A,,Clear,240,2012-11-20 15:15:00
9:35 AM,59.0,42.8,55,30.12,10.0,SW,4.6,-,N/A,,Clear,230,2012-11-20 15:35:00
9:55 AM,59.0,42.8,55,30.12,10.0,WSW,6.9,-,N/A,,Clear,250,2012-11-20 15:55:00
10:15 AM,59.0,42.8,55,30.13,10.0,West,6.9,-,N/A,,Scattered Clouds,260,2012-11-20 16:15:00
10:35 AM,59.0,42.8,55,30.12,10.0,WNW,4.6,-,N/A,,Overcast,300,2012-11-20 16:35:00
10:55 AM,59.0,42.8,55,30.12,10.0,Calm,Calm,-,N/A,,Overcast,0,2012-11-20 16:55:00
11:15 AM,59.0,44.6,59,30.11,10.0,NW,3.5,-,N/A,,Overcast,310,2012-11-20 17:15:00
11:35 AM,60.8,44.6,55,30.10,10.0,Calm,Calm,-,N/A,,Overcast,0,2012-11-20 17:35:00
11:55 AM,60.8,44.6,55,30.09,10.0,Calm,Calm,-,N/A,,Overcast,0,2012-11-20 17:55:00
12:15 PM,60.8,44.6,55,30.08,10.0,Calm,Calm,-,N/A,,Overcast,0,2012-11-20 18:15:00
12:35 PM,60.8,44.6,55,30.08,10.0,Calm,Calm,-,N/A,,Overcast,0,2012-11-20 18:35:00
1:15 PM,60.8,44.6,55,30.07,10.0,Calm,Calm,-,N/A,,Mostly Cloudy,0,2012-11-20 19:15:00
1:35 PM,62.6,44.6,52,30.06,10.0,Calm,Calm,-,N/A,,Mostly Cloudy,0,2012-11-20 19:35:00
1:55 PM,62.6,44.6,52,30.06,10.0,Calm,Calm,-,N/A,,Mostly Cloudy,0,2012-11-20 19:55:00
2:15 PM,62.6,44.6,52,30.06,10.0,Calm,Calm,-,N/A,,Mostly Cloudy,0,2012-11-20 20:15:00
2:35 PM,62.6,44.6,52,30.06,10.0,Calm,Calm,-,N/A,,Scattered Clouds,0,2012-11-20 20:35:00
2:55 PM,62.6,44.6,52,30.07,10.0,WNW,3.5,-,N/A,,Clear,290,2012-11-20 20:55:00
3:15 PM,62.6,44.6,52,30.07,10.0,Calm,Calm,-,N/A,,Clear,0,2012-11-20 21:15:00
3:35 PM,62.6,44.6,52,30.08,10.0,West,3.5,-,N/A,,Clear,280,2012-11-20 21:35:00
3:55 PM,62.6,46.4,55,30.08,10.0,Calm,Calm,-,N/A,,Clear,0,2012-11-20 21:55:00
4:15 PM,60.8,46.4,59,30.08,10.0,North,5.8,-,N/A,,Mostly Cloudy,350,2012-11-20 22:15:00
4:35 PM,59.0,46.4,63,30.09,10.0,North,5.8,-,N/A,,Overcast,360,2012-11-20 22:35:00
4:55 PM,59.0,46.4,63,30.10,10.0,NNW,3.5,-,N/A,,Overcast,340,2012-11-20 22:55:00
5:15 PM,59.0,46.4,63,30.10,10.0,NNW,5.8,-,N/A,,Overcast,330,2012-11-20 23:15:00
5:35 PM,59.0,46.4,63,30.11,10.0,NNW,4.6,-,N/A,,Overcast,330,2012-11-20 23:35:00
5:55 PM,57.2,46.4,67,30.12,10.0,NNW,4.6,-,N/A,,Overcast,330,2012-11-20 23:55:00
6:15 PM,55.4,48.2,77,30.12,10.0,NNW,3.5,-,N/A,,Overcast,340,2012-11-21 00:15:00
6:55 PM,55.4,46.4,72,30.13,10.0,North,5.8,-,N/A,,Overcast,360,2012-11-21 00:55:00
7:15 PM,55.4,46.4,72,30.13,10.0,North,3.5,-,N/A,,Overcast,350,2012-11-21 01:15:00
7:35 PM,53.6,46.4,77,30.14,10.0,NNW,3.5,-,N/A,,Overcast,340,2012-11-21 01:35:00
7:55 PM,53.6,46.4,77,30.14,10.0,NNW,3.5,-,N/A,,Overcast,340,2012-11-21 01:55:00
8:15 PM,53.6,46.4,77,30.14,10.0,NNW,3.5,-,N/A,,Overcast,330,2012-11-21 02:15:00
8:35 PM,53.6,46.4,77,30.15,10.0,Calm,Calm,-,N/A,,Overcast,0,2012-11-21 02:35:00
8:55 PM,53.6,46.4,77,30.16,10.0,Calm,Calm,-,N/A,,Overcast,0,2012-11-21 02:55:00
9:15 PM,53.6,46.4,77,30.16,10.0,Calm,Calm,-,N/A,,Overcast,0,2012-11-21 03:15:00
9:35 PM,53.6,46.4,77,30.16,10.0,Calm,Calm,-,N/A,,Overcast,0,2012-11-21 03:35:00
9:55 PM,53.6,46.4,77,30.16,10.0,Calm,Calm,-,N/A,,Overcast,0,2012-11-21 03:55:00
10:15 PM,53.6,46.4,77,30.16,10.0,Calm,Calm,-,N/A,,Overcast,0,2012-11-21 04:15:00
10:35 PM,51.8,46.4,82,30.16,10.0,Calm,Calm,-,N/A,,Mostly Cloudy,0,2012-11-21 04:35:00
10:55 PM,50.0,46.4,87,30.17,10.0,NW,3.5,-,N/A,,Mostly Cloudy,320,2012-11-21 04:55:00
11:15 PM,50.0,44.6,82,30.17,10.0,NNW,3.5,-,N/A,,Overcast,330,2012-11-21 05:15:00
11:35 PM,50.0,46.4,87,30.17,10.0,NNW,3.5,-,N/A,,Overcast,330,2012-11-21 05:35:00
11:55 PM,50.0,44.6,82,30.17,10.0,North,3.5,-,N/A,,Overcast,350,2012-11-21 05:55:00